Find Starlink 31844

NORAD ID: 60583 Int'l Des: 2024-150 Owner: SPXS Country: US Constellation: starlink operational
LEOCIRCULAR

当前视图

正在加载3D地球...

About Starlink 31844

Starlink 31844 (NORAD 60583) is a starlink constellation satellite (v2 mini) launched Aug 20, 2024 by SPXS of US. It operates in LEO, CIRCULAR orbit with a mass of 730.00 kg.

关于 Starlink 31844

正在加载描述...

即将过境

Passes for default location (London). Set your location on the main map for personalized predictions.

高度历史

Loading altitude history...

两行轨道根数

1 60583U 24150A 26175.27602300 .00000333 00000-0 22485-4 0 9999
2 60583 53.1593 170.9970 0000802 70.7628 289.3460 15.31705034104379
Epoch: Jun 24, 2026 • Age: 19 hours

当前状态

高度 477.1 km
速度 7.63 km/s
星下点 -22.10°S, 142.87°W
发射日期 Aug 20, 2024
运行时间 1.8 years
类型 internet

技术详情

分类 Payload
质量 730.00 kg
干质量 700.00 kg
总质量 730.00 kg
长度 0.30 m
直径 4.10 m
跨度 29.00 m
形状 Box + pan
制造商 SPXS
平台类型 Starlink V2M
阶段状态 In Orbit
所有者/国家 SPXS/US

Most Searched